When you browse on this site, cookies collect data to enhance your experience and personalize the content and advertising you see.
Visit our Privacy Policy to learn more. By continuing to use the site, you agree to this use of cookies and data.
  • In Hungary
  • List of Countries
  • For 7 days
  • Water Temperature
  • Weather Map
  • News
  • Weather Widgets
  • user-avatar
    Login

    Hourly Weather Litvinovo

    Today, 20 January, Monday

    Time Temperature Precipitation Wind Pressure Humidity
    00:00 0°C° 0 mm 3 mps 754 mmHg 91%
    01:00 -1°C° 0 mm 4 mps 754 mmHg 91%
    02:00 -1°C° 0 mm 4 mps 755 mmHg 91%
    03:00 -1°C° 0 mm 4 mps 754 mmHg 91%
    04:00 -1°C° 0 mm 4 mps 754 mmHg 90%
    05:00 -1°C° 0 mm 5 mps 754 mmHg 90%
    06:00 -1°C° 0 mm 4 mps 754 mmHg 89%
    07:00 -1°C° 0 mm 4 mps 755 mmHg 88%
    08:00 -1°C° 0 mm 4 mps 755 mmHg 87%
    09:00 -1°C° 0 mm 4 mps 755 mmHg 87%
    10:00 -1°C° 0 mm 4 mps 755 mmHg 87%
    11:00 -1°C° 0 mm 5 mps 755 mmHg 87%
    12:00 -1°C° 0 mm 5 mps 755 mmHg 86%
    13:00 -1°C° 0 mm 5 mps 755 mmHg 85%
    14:00 -1°C° 0 mm 5 mps 755 mmHg 84%
    15:00 -1°C° 0 mm 5 mps 755 mmHg 84%
    16:00 -1°C° 0 mm 5 mps 754 mmHg 84%
    17:00 -1°C° 0 mm 5 mps 754 mmHg 84%
    18:00 -1°C° 0 mm 5 mps 753 mmHg 83%
    19:00 -2°C° 0 mm 4 mps 753 mmHg 83%
    20:00 -2°C° 0 mm 4 mps 753 mmHg 83%
    21:00 -2°C° 0 mm 5 mps 752 mmHg 82%
    22:00 -2°C° 0 mm 5 mps 751 mmHg 81%
    23:00 -1°C° 0 mm 5 mps 751 mmHg 80%

    Tomorrow, 21 January, Tuesday

    Time Temperature Precipitation Wind Pressure Humidity
    00:00 -1°C° 0 mm 5 mps 750 mmHg 81%
    01:00 -1°C° 0 mm 5 mps 750 mmHg 83%
    02:00 -1°C° 0 mm 5 mps 749 mmHg 85%
    03:00 -1°C° 0 mm 5 mps 748 mmHg 86%
    04:00 -1°C° 0 mm 5 mps 747 mmHg 87%
    05:00 0°C° 0 mm 5 mps 746 mmHg 88%
    06:00 0°C° 0 mm 5 mps 746 mmHg 89%
    07:00 +1°C° 0 mm 5 mps 745 mmHg 89%
    08:00 +1°C° 0 mm 5 mps 745 mmHg 89%
    09:00 +2°C° 0 mm 5 mps 744 mmHg 90%
    10:00 +2°C° 0 mm 5 mps 744 mmHg 90%
    11:00 +2°C° 0 mm 5 mps 743 mmHg 91%
    12:00 +2°C° 0 mm 5 mps 743 mmHg 91%
    13:00 +3°C° 0 mm 5 mps 742 mmHg 91%
    14:00 +3°C° 0 mm 5 mps 741 mmHg 91%
    15:00 +3°C° 0.1 mm 6 mps 741 mmHg 90%
    16:00 +4°C° 0.1 mm 6 mps 740 mmHg 88%
    17:00 +4°C° 0.1 mm 7 mps 739 mmHg 86%
    18:00 +4°C° 0.3 mm 7 mps 739 mmHg 86%
    19:00 +4°C° 0.3 mm 6 mps 739 mmHg 86%
    20:00 +4°C° 0.3 mm 6 mps 739 mmHg 86%
    21:00 +3°C° 0.1 mm 6 mps 739 mmHg 81%
    22:00 +2°C° 0.1 mm 6 mps 739 mmHg 77%
    23:00 +1°C° 0.1 mm 6 mps 739 mmHg 72%

    Day after tomorrow, 22 January, Wednesday

    Time Temperature Precipitation Wind Pressure Humidity
    00:00 +1°C° 0 mm 6 mps 739 mmHg 72%
    01:00 0°C° 0 mm 5 mps 739 mmHg 72%
    02:00 -1°C° 0 mm 5 mps 740 mmHg 73%
    03:00 -1°C° 0 mm 5 mps 739 mmHg 74%
    04:00 -1°C° 0 mm 5 mps 739 mmHg 74%
    05:00 -2°C° 0 mm 4 mps 738 mmHg 75%
    06:00 -2°C° 0 mm 5 mps 738 mmHg 76%
    07:00 -2°C° 0 mm 5 mps 737 mmHg 77%
    08:00 -2°C° 0 mm 5 mps 737 mmHg 78%
    09:00 -2°C° 0 mm 5 mps 736 mmHg 79%
    10:00 -2°C° 0 mm 5 mps 736 mmHg 79%
    11:00 -1°C° 0 mm 5 mps 736 mmHg 79%
    12:00 -1°C° 0.2 mm 5 mps 735 mmHg 77%
    13:00 -1°C° 0.2 mm 5 mps 735 mmHg 75%
    14:00 -2°C° 0.2 mm 6 mps 735 mmHg 72%
    15:00 -2°C° 0 mm 5 mps 735 mmHg 73%
    16:00 -2°C° 0 mm 5 mps 735 mmHg 73%
    17:00 -3°C° 0 mm 4 mps 736 mmHg 74%
    18:00 -3°C° 0 mm 4 mps 736 mmHg 76%
    19:00 -4°C° 0 mm 5 mps 736 mmHg 78%
    20:00 -4°C° 0 mm 5 mps 737 mmHg 80%
    21:00 -4°C° 0.1 mm 5 mps 737 mmHg 82%
    22:00 -4°C° 0.1 mm 5 mps 738 mmHg 83%
    23:00 -4°C° 0.1 mm 5 mps 738 mmHg 85%

    23 January, Thursday

    Time Temperature Precipitation Wind Pressure Humidity
    00:00 -4°C° 0.1 mm 5 mps 739 mmHg 81%
    01:00 -5°C° 0.1 mm 5 mps 739 mmHg 77%
    02:00 -5°C° 0.1 mm 6 mps 740 mmHg 74%
    03:00 -6°C° 0 mm 6 mps 741 mmHg 69%
    04:00 -6°C° 0 mm 6 mps 741 mmHg 64%
    05:00 -8°C° 0 mm 6 mps 742 mmHg 59%
    06:00 -7°C° 0 mm 5 mps 742 mmHg 56%
    07:00 -7°C° 0 mm 5 mps 743 mmHg 53%
    08:00 -7°C° 0 mm 5 mps 743 mmHg 50%
    09:00 -6°C° 0 mm 5 mps 744 mmHg 51%
    10:00 -6°C° 0 mm 6 mps 744 mmHg 51%
    11:00 -5°C° 0 mm 6 mps 745 mmHg 51%
    12:00 -5°C° 0 mm 6 mps 745 mmHg 54%
    13:00 -5°C° 0 mm 6 mps 745 mmHg 56%
    14:00 -5°C° 0 mm 6 mps 745 mmHg 59%
    15:00 -5°C° 0 mm 5 mps 745 mmHg 61%
    16:00 -5°C° 0 mm 5 mps 745 mmHg 63%
    17:00 -4°C° 0 mm 4 mps 746 mmHg 64%
    18:00 -5°C° 0 mm 4 mps 746 mmHg 66%
    19:00 -5°C° 0 mm 3 mps 746 mmHg 67%
    20:00 -5°C° 0 mm 3 mps 746 mmHg 69%
    21:00 -5°C° 0 mm 3 mps 746 mmHg 69%
    22:00 -4°C° 0 mm 3 mps 745 mmHg 70%
    23:00 -4°C° 0 mm 3 mps 745 mmHg 71%

    24 January, Friday

    Time Temperature Precipitation Wind Pressure Humidity
    00:00 -4°C° 0.2 mm 4 mps 744 mmHg 77%
    01:00 -4°C° 0.2 mm 4 mps 743 mmHg 84%
    02:00 -5°C° 0.2 mm 5 mps 742 mmHg 90%
    03:00 -5°C° 0.6 mm 5 mps 741 mmHg 91%
    04:00 -4°C° 0.6 mm 5 mps 740 mmHg 92%
    05:00 -4°C° 0.6 mm 6 mps 739 mmHg 93%
    06:00 -3°C° 0.7 mm 6 mps 738 mmHg 93%
    07:00 0°C° 0.7 mm 5 mps 738 mmHg 94%
    08:00 +1°C° 0.7 mm 5 mps 737 mmHg 95%
    09:00 +1°C° 0.3 mm 5 mps 737 mmHg 94%
    10:00 +2°C° 0.3 mm 5 mps 737 mmHg 92%
    11:00 +2°C° 0.3 mm 5 mps 737 mmHg 91%
    12:00 +2°C° 0 mm 5 mps 737 mmHg 87%
    13:00 +2°C° 0 mm 6 mps 738 mmHg 83%
    14:00 +2°C° 0 mm 6 mps 738 mmHg 78%
    15:00 +1°C° 0 mm 5 mps 738 mmHg 80%
    16:00 0°C° 0 mm 4 mps 739 mmHg 81%
    17:00 -1°C° 0 mm 4 mps 739 mmHg 82%
    18:00 -1°C° 0 mm 3 mps 739 mmHg 85%
    19:00 -1°C° 0 mm 3 mps 739 mmHg 88%
    20:00 -1°C° 0 mm 3 mps 740 mmHg 90%
    21:00 -1°C° 0 mm 3 mps 740 mmHg 92%
    22:00 -1°C° 0 mm 2 mps 740 mmHg 93%
    23:00 -1°C° 0 mm 2 mps 740 mmHg 95%

    25 January, Saturday

    Time Temperature Precipitation Wind Pressure Humidity
    00:00 -1°C° 0 mm 2 mps 740 mmHg 96%
    01:00 +1°C° 0 mm 2 mps 740 mmHg 96%
    02:00 +1°C° 0 mm 2 mps 740 mmHg 97%
    03:00 +1°C° 0.1 mm 2 mps 740 mmHg 97%
    04:00 +2°C° 0.1 mm 2 mps 740 mmHg 97%
    05:00 +2°C° 0.1 mm 2 mps 740 mmHg 98%
    06:00 +2°C° 0.1 mm 2 mps 740 mmHg 97%
    07:00 +2°C° 0.1 mm 2 mps 740 mmHg 97%
    08:00 +2°C° 0.1 mm 2 mps 740 mmHg 97%
    09:00 +2°C° 0 mm 2 mps 740 mmHg 96%
    10:00 +2°C° 0 mm 3 mps 740 mmHg 94%
    11:00 +2°C° 0 mm 3 mps 741 mmHg 93%
    12:00 +2°C° 0.1 mm 3 mps 741 mmHg 94%
    13:00 +2°C° 0.1 mm 3 mps 740 mmHg 95%
    14:00 +2°C° 0.1 mm 3 mps 740 mmHg 96%
    15:00 +2°C° 0.1 mm 3 mps 740 mmHg 96%
    16:00 +2°C° 0.1 mm 3 mps 740 mmHg 96%
    17:00 +2°C° 0.1 mm 3 mps 740 mmHg 95%
    18:00 +2°C° 0.1 mm 3 mps 740 mmHg 95%
    19:00 +2°C° 0.1 mm 3 mps 740 mmHg 95%
    20:00 +2°C° 0.1 mm 3 mps 741 mmHg 96%
    21:00 +2°C° 0 mm 3 mps 741 mmHg 95%
    22:00 +2°C° 0 mm 3 mps 741 mmHg 95%
    23:00 +2°C° 0 mm 3 mps 741 mmHg 95%
    Show more